GW0378 Weather Reports


time (UTC)temp
C
wind
direction
speed
KPH
gust
KPH
rain 1hr
cm
rain 24hr
cm
rain mn
cm
humidity
%
barometer
mb
20260903135601 9 65 3.2 4.8 0.00 0.00 0.00 94 1011.8
20260903135101 9 173 0.0 4.8 0.00 0.00 0.00 94 1012.0
20260903134559 9 102 3.2 8.0 0.00 0.00 0.00 93 1011.9
20260903134055 9 90 1.6 4.8 0.00 0.00 0.00 94 1011.7
20260903133553 8 102 1.6 9.7 0.00 0.00 0.00 94 1011.5
20260903133049 8 60 4.8 4.8 0.00 0.00 0.00 95 1011.6
20260903132543 8 42 4.8 9.7 0.00 0.00 0.00 95 1011.5
20260903132038 8 98 1.6 4.8 0.00 0.00 0.00 95 1011.7
20260903131532 8 99 0.0 3.2 0.00 0.00 0.00 95 1011.6
20260903131032 8 105 0.0 4.8 0.00 0.00 0.00 95 1011.4
20260903130526 8 23 0.0 1.6 0.00 0.00 0.00 96 1011.5
20260903130021 8 41 3.2 6.4 0.00 0.00 0.00 96 1011.5
20260903125519 8 81 3.2 6.4 0.00 0.00 0.00 96 1011.1
20260903125015 8 90 1.6 3.2 0.00 0.00 0.00 96 1011.3
20260903124509 8 90 0.0 3.2 0.00 0.00 0.00 96 1011.4
20260903124008 8 291 0.0 3.2 0.00 0.00 0.00 96 1011.1
20260903123504 8 81 0.0 3.2 0.00 0.00 0.00 96 1011.0
20260903123002 8 120 1.6 6.4 0.00 0.00 0.00 95 1011.1
20260903122456 8 120 0.0 1.6 0.00 0.00 0.00 95 1011.0
20260903121956 8 154 3.2 3.2 0.00 0.00 0.00 95 1010.9
20260903121450 8 191 1.6 4.8 0.00 0.00 0.00 95 1011.0
20260903120947 8 23 3.2 4.8 0.00 0.00 0.00 95 1010.9
20260903120445 8 49 4.8 4.8 0.00 0.00 0.00 96 1010.8
20260903115944 8 106 6.4 9.7 0.00 0.00 0.00 96 1011.0
20260903115443 8 30 3.2 4.8 0.00 0.00 0.00 96 1011.0
20260903114938 8 29 1.6 4.8 0.00 0.00 0.00 96 1010.9
20260903114434 8 74 3.2 4.8 0.00 0.00 0.00 96 1010.9
20260903113929 8 112 3.2 4.8 0.00 0.00 0.00 96 1011.4
20260903113425 8 15 0.0 3.2 0.00 0.00 0.00 96 1011.1
20260903112921 8 90 3.2 3.2 0.00 0.00 0.00 96 1010.9
20260903112416 8 286 0.0 3.2 0.00 0.00 0.00 96 1011.1
20260903111915 8 48 3.2 3.2 0.00 0.00 0.00 96 1011.1
20260903111415 8 90 3.2 3.2 0.00 0.00 0.00 96 1011.3
20260903110911 8 98 0.0 4.8 0.00 0.00 0.00 96 1011.1
20260903110407 8 99 0.0 3.2 0.00 0.00 0.00 96 1010.8
20260903105901 8 96 1.6 3.2 0.00 0.00 0.00 96 1010.8
20260903105357 8 81 0.0 3.2 0.00 0.00 0.00 96 1010.9
20260903104856 8 192 0.0 3.2 0.00 0.00 0.00 95 1010.7
20260903104350 8 255 0.0 1.6 0.00 0.00 0.00 96 1011.0
20260903103848 8 120 0.0 1.6 0.00 0.00 0.00 95 1010.9
20260903103344 8 105 0.0 3.2 0.00 0.00 0.00 96 1011.0
20260903102838 8 117 1.6 9.7 0.00 0.00 0.00 96 1010.9
20260903102333 8 94 3.2 8.0 0.00 0.00 0.00 96 1010.7
20260903101833 8 79 4.8 8.0 0.00 0.00 0.00 96 1010.9
20260903101328 8 99 6.4 8.0 0.00 0.00 0.00 96 1010.9
20260903100823 8 98 4.8 8.0 0.00 0.00 0.00 96 1011.1
20260903100317 8 105 4.8 6.4 0.00 0.00 0.00 96 1011.0
20260903095815 8 40 1.6 3.2 0.00 0.00 0.00 96 1010.9
20260903095309 8 99 0.0 3.2 0.00 0.00 0.00 96 1011.1
20260903094805 8 83 1.6 3.2 0.00 0.00 0.00 96 1011.1
20260903094259 8 45 3.2 3.2 0.00 0.00 0.00 96 1011.0
20260903093755 8 57 1.6 3.2 0.00 0.00 0.00 96 1010.9
20260903093250 8 94 3.2 3.2 0.00 0.00 0.00 95 1011.0
20260903092750 8 95 3.2 3.2 0.00 0.00 0.00 95 1011.0
20260903092245 8 56 3.2 3.2 0.00 0.00 0.00 95 1011.1
20260903091743 8 45 3.2 4.8 0.00 0.00 0.00 96 1010.8
20260903091232 8 85 3.2 3.2 0.00 0.00 0.00 95 1010.9
20260903090728 8 98 0.0 1.6 0.00 0.00 0.00 95 1010.9
20260903090227 8 90 1.6 3.2 0.00 0.00 0.00 95 1011.3
20260903085726 8 203 0.0 3.2 0.00 0.00 0.00 95 1010.8
20260903085221 8 261 3.2 4.8 0.00 0.00 0.00 95 1011.0
20260903084718 8 258 3.2 4.8 0.00 0.00 0.00 95 1011.1
20260903084214 8 90 0.0 0.0 0.00 0.00 0.00 95 1010.9
20260903083710 8 111 1.6 4.8 0.00 0.00 0.00 95 1010.6
20260903083209 8 103 3.2 4.8 0.00 0.00 0.00 95 1010.8
20260903082703 8 103 1.6 4.8 0.00 0.00 0.00 95 1010.7
20260903082159 8 113 3.2 6.4 0.00 0.00 0.00 95 1010.7
20260903081653 8 86 4.8 9.7 0.00 0.00 0.00 95 1010.6
20260903081150 8 123 4.8 4.8 0.00 0.00 0.00 95 1010.6
20260903080645 8 108 4.8 8.0 0.00 0.00 0.00 95 1010.6
20260903080143 8 103 0.0 3.2 0.00 0.00 0.00 95 1010.8
20260903075642 8 90 4.8 4.8 0.00 0.00 0.00 95 1010.4
20260903075137 8 94 3.2 4.8 0.00 0.00 0.00 94 1010.6
20260903074636 8 69 4.8 4.8 0.00 0.00 0.00 94 1010.0
20260903074132 8 65 3.2 3.2 0.00 0.00 0.00 94 1010.3
20260903073627 8 73 3.2 3.2 0.00 0.00 0.00 94 1010.4
20260903073122 8 99 4.8 6.4 0.00 0.00 0.00 93 1010.4
20260903072618 8 114 0.0 4.8 0.00 0.00 0.00 93 1010.1
20260903072114 8 139 3.2 4.8 0.00 0.00 0.00 93 1010.5
20260903071611 8 99 0.0 11.3 0.00 0.00 0.00 93 1010.3
20260903071111 8 72 9.7 11.3 0.00 0.00 0.00 93 1010.4
20260903070605 8 48 3.2 6.4 0.00 0.00 0.00 93 1009.9
20260903065600 8 99 4.8 6.4 0.00 0.00 0.00 93 1010.4
20260903065055 8 123 4.8 8.0 0.00 0.00 0.00 93 1010.4
20260903064554 8 152 3.2 6.4 0.00 0.00 0.00 93 1010.0
20260903064050 8 104 8.0 14.5 0.00 0.00 0.00 92 1009.9
20260903063545 9 121 6.4 14.5 0.00 0.00 0.00 93 1010.1
20260903063041 8 123 3.2 12.9 0.00 0.00 0.00 93 1010.5
20260903062536 8 114 0.0 3.2 0.00 0.00 0.00 94 1010.0
20260903062031 8 92 9.7 9.7 0.00 0.00 0.00 94 1010.0
20260903061527 8 98 4.8 6.4 0.00 0.00 0.00 93 1010.0
20260903061026 8 99 0.0 3.2 0.00 0.00 0.00 93 1010.3
20260903060525 8 111 0.0 8.0 0.00 0.00 0.00 93 1010.3
20260903060021 8 131 1.6 3.2 0.00 0.74 0.74 93 1010.3
20260903055518 8 81 0.0 1.6 0.00 0.74 0.74 93 1010.3
20260903055017 8 146 3.2 6.4 0.00 0.74 0.74 92 1010.4
20260903054513 9 129 4.8 9.7 0.00 0.74 0.74 92 1010.4
20260903054008 9 108 6.4 6.4 0.00 0.74 0.74 92 1010.0
20260903053503 9 105 4.8 6.4 0.00 0.74 0.74 92 1010.3
20260903052959 9 99 6.4 6.4 0.00 0.74 0.74 91 1010.5
20260903052455 10 90 3.2 11.3 0.00 0.74 0.74 91 1010.3
20260903051950 10 90 3.2 4.8 0.00 0.74 0.74 91 1010.6
20260903051445 10 114 1.6 4.8 0.00 0.74 0.74 91 1010.5
20260903050941 10 90 4.8 8.0 0.00 0.74 0.74 90 1010.3
20260903050440 10 90 0.0 4.8 0.00 0.74 0.74 90 1010.5
20260903045934 10 105 4.8 8.0 0.00 0.74 0.74 90 1010.6
20260903045430 10 105 9.7 9.7 0.00 0.74 0.74 91 1010.7
20260903044927 10 81 0.0 11.3 0.00 0.74 0.74 91 1010.6
20260903044427 10 129 9.7 14.5 0.00 0.74 0.74 90 1010.7
20260903043923 10 112 11.3 16.1 0.00 0.74 0.74 90 1010.6
20260903043419 10 106 8.0 19.3 0.00 0.74 0.74 90 1010.8
20260903042917 10 100 4.8 12.9 0.00 0.74 0.74 89 1010.5
20260903042413 10 103 9.7 16.1 0.00 0.74 0.74 89 1010.8
20260903041908 10 90 16.1 20.9 0.00 0.74 0.74 89 1010.6
20260903041404 10 112 4.8 14.5 0.00 0.74 0.74 89 1010.6
20260903040900 10 118 9.7 12.9 0.00 0.74 0.74 90 1010.7
20260903040359 10 121 6.4 11.3 0.00 0.74 0.74 89 1010.9
20260903035854 10 102 8.0 12.9 0.00 0.74 0.74 90 1010.5
20260903035350 10 102 8.0 14.5 0.00 0.74 0.74 90 1010.7
20260903034840 10 115 8.0 17.7 0.00 0.74 0.74 90 1010.9
20260903034335 10 109 6.4 11.3 0.00 0.74 0.74 90 1010.6
20260903033830 10 96 9.7 14.5 0.00 0.74 0.74 89 1010.7
20260903033325 11 82 4.8 11.3 0.00 0.74 0.74 88 1010.8
20260903032824 11 96 4.8 8.0 0.00 0.74 0.74 88 1010.8
20260903032320 11 94 3.2 8.0 0.00 0.74 0.74 88 1010.4
20260903031816 11 99 8.0 8.0 0.00 0.74 0.74 88 1010.6
20260903031315 11 87 6.4 8.0 0.00 0.74 0.74 88 1010.7
20260903030811 11 124 6.4 9.7 0.00 0.74 0.74 88 1010.6
20260903030307 11 66 3.2 9.7 0.00 0.74 0.74 88 1010.5
20260903025802 11 74 8.0 9.7 0.00 0.74 0.74 87 1010.7
20260903025258 11 98 3.2 11.3 0.00 0.74 0.74 87 1010.6
20260903024752 11 34 4.8 11.3 0.00 0.74 0.74 87 1010.6
20260903024251 11 93 4.8 11.3 0.00 0.74 0.74 87 1010.5
20260903023747 12 106 6.4 11.3 0.00 0.74 0.74 87 1010.5
20260903023243 12 107 8.0 11.3 0.00 0.74 0.74 86 1010.6
20260903022743 12 107 6.4 14.5 0.00 0.74 0.74 85 1010.5
20260903022242 12 113 11.3 14.5 0.00 0.74 0.74 85 1010.7
20260903021741 12 106 6.4 8.0 0.00 0.74 0.74 83 1010.4
20260903021237 12 105 6.4 11.3 0.00 0.74 0.74 82 1010.3
20260903020737 13 109 4.8 8.0 0.00 0.74 0.74 81 1010.7
20260903020231 13 98 6.4 8.0 0.00 0.74 0.74 80 1010.3
20260903015726 13 83 11.3 12.9 0.00 0.74 0.74 80 1010.5
20260903015222 13 107 4.8 9.7 0.00 0.74 0.74 78 1010.5
20260903014717 14 105 4.8 9.7 0.00 0.74 0.74 76 1010.4
20260903014217 15 142 3.2 11.3 0.00 0.74 0.74 76 1010.5
20260903013712 15 90 0.0 6.4 0.00 0.74 0.74 75 1010.6
20260903013211 15 124 0.0 3.2 0.00 0.74 0.74 71 1010.7
20260903012709 16 151 0.0 3.2 0.00 0.74 0.74 71 1010.5
20260903012204 15 180 0.0 0.0 0.00 0.74 0.74 72 1010.7
20260903011659 15 15 0.0 0.0 0.00 0.74 0.74 70 1010.9
20260903011158 15 15 0.0 0.0 0.00 0.74 0.74 72 1010.5
20260903010653 15 15 0.0 1.6 0.00 0.74 0.74 72 1010.9
20260903010153 15 261 0.0 0.0 0.00 0.74 0.74 69 1010.7
20260903005647 16 261 0.0 0.0 0.00 0.74 0.74 67 1010.7
20260903005142 16 270 0.0 3.2 0.00 0.74 0.74 66 1010.8
20260903004637 16 325 0.0 4.8 0.00 0.74 0.74 67 1011.0
20260903004132 15 172 0.0 0.0 0.00 0.74 0.74 70 1011.0
20260903003628 16 66 0.0 1.6 0.00 0.74 0.74 68 1011.0
20260903003123 16 297 0.0 4.8 0.00 0.74 0.74 67 1011.1
20260903002618 16 301 3.2 3.2 0.00 0.74 0.74 66 1011.3
20260903002112 16 283 3.2 4.8 0.00 0.74 0.74 68 1011.5
20260903001607 16 0 0.0 3.2 0.00 0.74 0.74 68 1011.3
20260903001107 16 305 3.2 6.4 0.00 0.74 0.74 66 1011.3
20260903000602 16 74 0.0 3.2 0.00 0.74 0.74 69 1011.6
20260903000055 16 330 3.2 4.8 0.00 0.74 0.74 70 1011.5
20260902235555 16 326 3.2 6.4 0.00 0.74 0.74 71 1011.6
20260902235050 15 270 1.6 6.4 0.00 0.74 0.74 73 1011.7
20260902234544 15 257 6.4 6.4 0.00 0.74 0.74 76 1011.8
20260902234043 15 276 3.2 6.4 0.00 0.74 0.74 75 1011.7
20260902233538 15 26 3.2 4.8 0.00 0.74 0.74 75 1011.7
20260902233032 15 284 4.8 4.8 0.00 0.74 0.74 74 1011.5
20260902232532 14 0 0.0 3.2 0.00 0.74 0.74 74 1011.5
20260902232026 15 98 1.6 4.8 0.00 0.74 0.74 75 1011.9
20260902231521 15 246 0.0 1.6 0.00 0.74 0.74 75 1011.9
20260902231021 14 26 0.0 0.0 0.00 0.74 0.74 81 1011.9
20260902230515 13 299 3.2 4.8 0.00 0.74 0.74 84 1011.9
20260902230014 13 352 0.0 3.2 0.00 0.74 0.74 85 1012.0
20260902225510 13 99 0.0 3.2 0.00 0.74 0.74 85 1011.8
20260902225004 13 0 1.6 3.2 0.00 0.74 0.74 86 1011.9
20260902224503 12 278 0.0 3.2 0.00 0.74 0.74 86 1012.3
20260902223959 12 9 3.2 4.8 0.00 0.74 0.74 87 1012.3
20260902223455 12 24 3.2 4.8 0.00 0.74 0.74 88 1012.3
20260902222954 12 90 3.2 3.2 0.00 0.74 0.74 88 1012.4
20260902222453 12 14 0.0 3.2 0.00 0.74 0.74 89 1012.3
20260902221952 12 65 3.2 4.8 0.00 0.74 0.74 90 1012.6
20260902221452 12 54 0.0 1.6 0.00 0.74 0.74 91 1012.7
20260902220947 11 15 0.0 1.6 0.00 0.74 0.74 92 1012.6
20260902220441 11 15 0.0 1.6 0.00 0.74 0.74 93 1012.8
20260902215936 11 15 1.6 3.2 0.00 0.74 0.74 93 1012.4
20260902215432 11 71 1.6 6.4 0.00 0.74 0.74 94 1012.6
20260902214928 11 233 3.2 6.4 0.00 0.74 0.74 94 1012.8
20260902214426 11 307 3.2 4.8 0.00 0.74 0.74 94 1012.7
20260902213921 11 203 1.6 4.8 0.00 0.74 0.74 94 1012.8
20260902213417 11 262 4.8 9.7 0.00 0.74 0.74 94 1012.5
20260902212916 11 192 4.8 16.1 0.00 0.74 0.74 93 1012.6
20260902212412 10 234 6.4 8.0 0.00 0.74 0.74 94 1011.7
20260902211908 10 173 0.0 4.8 0.00 0.74 0.74 94 1011.3
20260902211403 10 180 3.2 4.8 0.00 0.74 0.74 93 1010.5
20260902210853 11 8 0.0 1.6 0.00 0.74 0.74 93 1011.1
20260902210352 10 209 4.8 6.4 0.00 0.74 0.74 93 1011.4
20260902205850 10 53 3.2 6.4 0.00 0.74 0.74 93 1011.5
20260902205340 11 117 3.2 8.0 0.00 0.74 0.74 93 1011.9
20260902204835 11 41 0.0 4.8 0.00 0.74 0.74 93 1012.3
20260902204330 10 233 0.0 4.8 0.05 0.74 0.74 93 1012.4
20260902203826 10 188 0.0 3.2 0.05 0.71 0.71 93 1012.7
20260902203321 10 24 3.2 8.0 0.18 0.71 0.71 93 1013.2
20260902202820 10 66 1.6 4.8 0.23 0.71 0.71 93 1013.9
20260902202317 10 0 1.6 3.2 0.48 0.69 0.69 92 1014.5
20260902201813 10 47 4.8 6.4 0.53 0.66 0.66 92 1014.4
20260902201312 10 29 0.0 6.4 0.36 0.61 0.61 92 1014.8
20260902200808 11 61 4.8 6.4 0.43 0.56 0.56 91 1014.7
20260902200303 11 103 1.6 3.2 0.66 0.56 0.56 89 1014.8
20260902195758 11 270 3.2 4.8 0.53 0.48 0.48 87 1014.7
20260902195257 11 245 3.2 8.0 0.43 0.43 0.43 85 1014.5
20260902194752 11 201 0.0 6.4 0.84 0.38 0.38 89 1014.4
20260902194247 11 174 6.4 12.9 1.45 0.33 0.33 91 1014.0
20260902193743 11 196 3.2 12.9 1.32 0.25 0.25 84 1013.7
20260902193238 12 287 6.4 12.9 0.48 0.10 0.10 82 1013.7
20260902192737 13 298 4.8 12.9 0.13 0.03 0.03 75 1012.9
20260902192236 13 261 9.7 20.9 0.13 0.03 0.03 75 1012.5
20260902191731 13 196 11.3 12.9 0.00 0.00 0.00 74 1012.0
20260902191226 14 203 17.7 25.7 0.00 0.00 0.00 70 1011.6
20260902190721 15 235 12.9 41.8 0.00 0.00 0.00 66 1011.6
20260902190221 15 236 32.2 38.6 0.00 0.00 0.00 64 1011.4
20260902185717 16 241 8.0 40.2 0.00 0.00 0.00 63 1011.0
20260902185213 16 199 16.1 41.8 0.00 0.00 0.00 62 1011.1
20260902184712 16 230 16.1 40.2 0.00 0.00 0.00 61 1010.9
20260902184208 17 289 14.5 14.5 0.00 0.00 0.00 65 1010.9
20260902183704 17 148 3.2 22.5 0.00 0.00 0.00 66 1010.7
20260902183200 17 272 11.3 12.9 0.00 0.00 0.00 71 1010.6
20260902182656 17 299 3.2 11.3 0.00 0.00 0.00 70 1010.6
20260902182152 17 264 4.8 9.7 0.00 0.00 0.00 70 1010.4
20260902181648 17 264 8.0 11.3 0.00 0.00 0.00 70 1010.5
20260902181148 17 286 4.8 11.3 0.00 0.00 0.00 70 1010.3
20260902180642 17 283 4.8 9.7 0.00 0.00 0.00 69 1010.3
20260902180138 17 258 3.2 11.3 0.00 0.00 0.00 69 1010.3
20260902175637 17 247 9.7 9.7 0.00 0.00 0.00 68 1010.1
20260902175133 17 231 8.0 11.3 0.00 0.00 0.00 68 1010.0
20260902174630 18 267 4.8 9.7 0.00 0.00 0.00 67 1010.1
20260902174125 18 277 4.8 4.8 0.00 0.00 0.00 69 1009.9
20260902173620 18 309 3.2 8.0 0.00 0.00 0.00 68 1009.7
20260902173115 18 280 4.8 8.0 0.00 0.00 0.00 67 1009.9
20260902172609 18 302 4.8 8.0 0.00 0.00 0.00 66 1009.7
20260902172103 18 111 4.8 6.4 0.00 0.00 0.00 67 1009.8
20260902171559 18 206 3.2 4.8 0.00 0.00 0.00 68 1009.7
20260902171055 17 277 4.8 6.4 0.00 0.00 0.00 71 1009.6
20260902170550 18 254 3.2 8.0 0.00 0.00 0.00 69 1009.5
20260902170046 17 286 1.6 8.0 0.00 0.00 0.00 72 1009.5
20260902165545 17 20 4.8 8.0 0.00 0.00 0.00 72 1009.6
20260902165039 17 26 4.8 6.4 0.00 0.00 0.00 74 1009.6
20260902164535 17 331 3.2 4.8 0.00 0.00 0.00 73 1009.5
20260902164033 16 3 3.2 11.3 0.00 0.00 0.00 75 1009.6
20260902163530 16 235 3.2 4.8 0.00 0.00 0.00 76 1009.3
20260902163028 16 294 0.0 6.4 0.00 0.00 0.00 77 1009.1
20260902162527 15 288 6.4 11.3 0.00 0.00 0.00 77 1009.3
20260902162023 16 236 3.2 4.8 0.00 0.00 0.00 76 1009.1
20260902161518 16 39 3.2 6.4 0.00 0.00 0.00 76 1009.0
20260902161013 15 241 0.0 3.2 0.00 0.00 0.00 79 1009.3
20260902160509 15 206 3.2 3.2 0.00 0.00 0.00 79 1009.0
20260902160010 15 4 0.0 6.4 0.00 0.00 0.00 80 1008.8
20260902155502 15 0 3.2 4.8 0.00 0.00 0.00 79 1009.1
20260902155001 15 306 0.0 4.8 0.00 0.00 0.00 80 1009.3
20260902154456 15 203 0.0 3.2 0.00 0.00 0.00 80 1008.9
20260902153952 14 0 3.2 4.8 0.00 0.00 0.00 82 1009.0
20260902153450 14 315 3.2 3.2 0.00 0.00 0.00 83 1009.1
20260902152945 13 257 3.2 4.8 0.00 0.00 0.00 84 1009.1
20260902152442 13 270 3.2 6.4 0.00 0.00 0.00 85 1009.0
20260902151937 13 265 3.2 6.4 0.00 0.00 0.00 85 1008.9
20260902151433 13 180 0.0 8.0 0.00 0.00 0.00 86 1008.9
20260902150926 13 260 6.4 6.4 0.00 0.00 0.00 87 1009.1
20260902150423 13 270 4.8 6.4 0.00 0.00 0.00 87 1009.0
20260902145922 13 195 1.6 6.4 0.00 0.00 0.00 87 1008.9
20260902145418 13 212 1.6 4.8 0.00 0.00 0.00 88 1008.8
20260902144913 12 270 1.6 4.8 0.00 0.00 0.00 88 1009.0
20260902144409 13 340 1.6 3.2 0.00 0.00 0.00 87 1008.8
20260902143903 13 45 0.0 3.2 0.00 0.00 0.00 88 1008.9
20260902143358 12 35 0.0 3.2 0.00 0.00 0.00 88 1008.9
20260902142853 12 286 0.0 1.6 0.00 0.00 0.00 89 1009.0
20260902142349 12 315 0.0 4.8 0.00 0.00 0.00 89 1009.0
20260902141844 12 168 0.0 3.2 0.00 0.00 0.00 90 1009.1
20260902141340 12 145 1.6 4.8 0.00 0.00 0.00 90 1009.0
20260902140839 12 187 1.6 1.6 0.00 0.00 0.00 90 1009.4
20260902140334 12 270 0.0 0.0 0.00 0.00 0.00 90 1009.5